{"data":{"norad_id":60349,"intl_designator":"2024-136W","name":"STARLINK-32181","alt_names":[],"object_type":"PAYLOAD","status":"ACTIVE","operator":null,"country":"US","launch_date":"2024-08-02","launch_site_code":"AFETR","launch_vehicle":null,"mission":null,"orbit_class":"UNKNOWN","rcs_meters":null,"size_class":null,"mass_kg":null,"dimensions":null,"purposes":["comms"],"wikipedia_slug":null,"has_3d_model":false,"image_url":null,"decayed_at":null,"tle_current":{"epoch":"2026-05-25T04:29:47.720832Z","epoch_age_seconds":56100,"freshness":"FRESH","line1":"1 60349U 24136W   26145.18735788  .00000987  00000+0  40338-4 0  9998","line2":"2 60349  53.1607  79.1363 0001202  95.8165 264.2975 15.34392108101399","mean_motion":15.34392108,"eccentricity":0.0001202,"inclination_deg":53.1607,"raan_deg":79.1363,"arg_perigee_deg":95.8165,"mean_anomaly_deg":264.2975,"bstar":4.0338e-5,"rev_number":10139,"period_min":93.84824077836,"perigee_km":461.90442517843,"apogee_km":463.54896881119,"semimajor_km":6840.8636969948,"source":"CELESTRAK","updated_at":"2026-05-25T13:38:19.236921Z"}}}